Date String (YYYY-MM-DD hh:mm:ss) UTC,Instrument flags,Ambient pressure (hPa),Sample flow (lpm),Bypass flow (lpm),Sample temperature (°C),Ambient temperature (°C),ASC tube jacket temperature (°C),LED temperature (°C),Box temperature (°C),Sample RH (%),Span deviation,Mass concentration (μg/m³),Mass concentration (μg/m³),Mass concentration (μg/m³)
DateTimeUTC,F1_M11,P_M11,Q1_M11,Q2_M11,T1_M11,T2_M11,T3_M11,T4_M11,T5_M11,U1_M11,ZSPAN_M11,X2_M11,X0_M11,X1_M11
2022-09-01 06:00:00,,0830.5,5.00,0.00,30.0,28.7,00.0,38.8,31.9,18.7,0000.0,0005.17,0014.64,0004.34
2022-09-01 06:01:00,,0830.5,5.01,0.00,30.1,28.8,00.0,38.8,31.9,18.6,0000.0,0005.20,0014.25,0004.34
2022-09-01 06:02:00,,0830.6,4.98,0.00,30.1,28.8,00.0,38.8,31.9,18.6,0000.0,0005.26,0014.04,0004.35
2022-09-01 06:03:00,,0830.6,5.00,0.00,30.1,28.9,00.0,38.8,32.0,18.5,0000.0,0005.28,0014.37,0004.35
2022-09-01 06:04:00,,0830.6,5.00,0.00,30.1,29.0,00.0,38.9,32.0,18.6,0000.0,0005.34,0013.61,0004.35
2022-09-01 06:05:00,,0830.6,5.00,0.00,30.1,29.0,00.0,38.9,32.0,18.5,0000.0,0005.31,0013.07,0004.35
2022-09-01 06:06:00,,0830.6,5.01,0.00,30.2,29.1,00.0,38.9,32.0,18.5,0000.0,0005.33,0012.98,0004.34
2022-09-01 06:07:00,,0830.6,4.99,0.00,30.2,29.1,00.0,38.9,32.1,18.5,0000.0,0005.31,0013.69,0004.34
2022-09-01 06:08:00,,0830.6,5.00,0.00,30.2,29.2,00.0,38.9,32.1,18.5,0000.0,0005.32,0013.88,0004.34
2022-09-01 06:09:00,,0830.6,5.01,0.00,30.3,29.2,00.0,38.9,32.1,18.5,0000.0,0005.39,0013.67,0004.35
2022-09-01 06:10:00,,0830.6,5.01,0.00,30.3,29.3,00.0,39.0,32.1,18.5,0000.0,0005.41,0014.12,0004.36
2022-09-01 06:11:00,,0830.6,4.98,0.00,30.3,28.8,00.0,39.0,32.1,18.5,0000.0,0005.43,0014.59,0004.36
2022-09-01 06:12:00,,0830.6,5.01,0.00,30.3,27.4,00.0,38.9,32.0,18.5,0000.0,0005.45,0015.56,0004.37
2022-09-01 06:13:00,,0830.5,5.00,0.00,30.2,27.1,00.0,38.9,32.0,18.6,0000.0,0005.43,0015.61,0004.38
2022-09-01 06:14:00,,0830.5,5.01,0.00,30.1,27.2,00.0,38.9,31.8,18.7,0000.0,0005.43,0014.65,0004.38
2022-09-01 06:15:00,,0830.5,5.01,0.00,30.1,27.6,00.0,38.9,31.7,18.8,0000.0,0005.44,0014.63,0004.38
2022-09-01 06:16:00,,0830.5,5.00,0.00,30.0,27.9,00.0,38.8,31.7,18.8,0000.0,0005.44,0015.38,0004.37
2022-09-01 06:17:00,,0830.5,5.01,0.00,30.0,28.1,00.0,38.8,31.8,18.8,0000.0,0005.42,0015.21,0004.37
2022-09-01 06:18:00,,0830.5,5.00,0.00,30.0,28.3,00.0,38.8,31.8,18.8,0000.0,0005.41,0014.26,0004.37
2022-09-01 06:19:00,,0830.5,5.00,0.00,30.0,28.5,00.0,38.8,31.8,18.8,0000.0,0005.43,0014.14,0004.37
2022-09-01 06:20:00,,0830.5,5.00,0.00,30.0,28.6,00.0,38.8,31.8,18.7,0000.0,0005.40,0014.20,0004.37
2022-09-01 06:21:00,,0830.4,4.99,0.00,30.1,28.7,00.0,38.8,31.9,18.7,0000.0,0005.34,0014.21,0004.36
2022-09-01 06:22:00,,0830.5,5.01,0.00,30.1,28.8,00.0,38.8,31.9,18.6,0000.0,0005.33,0014.03,0004.35
2022-09-01 06:23:00,,0830.5,4.98,0.00,30.1,28.9,00.0,38.8,31.9,18.6,0000.0,0005.33,0013.63,0004.34
2022-09-01 06:24:00,,0830.5,5.00,0.00,30.1,28.9,00.0,38.9,32.0,18.6,0000.0,0005.35,0013.44,0004.33
2022-09-01 06:25:00,,0830.5,5.00,0.00,30.1,29.0,00.0,38.9,32.0,18.6,0000.0,0005.35,0012.94,0004.32
2022-09-01 06:26:00,,0830.5,5.00,0.00,30.2,29.0,00.0,38.9,32.0,18.6,0000.0,0005.32,0012.35,0004.32
2022-09-01 06:27:00,,0830.5,4.98,0.00,30.2,29.1,00.0,38.9,32.0,18.6,0000.0,0005.27,0011.78,0004.32
2022-09-01 06:28:00,,0830.5,5.01,0.00,30.2,29.1,00.0,38.9,32.1,18.5,0000.0,0005.28,0011.42,0004.33
2022-09-01 06:29:00,,0830.5,5.01,0.00,30.2,29.2,00.0,38.9,32.1,18.5,0000.0,0005.28,0011.58,0004.32
2022-09-01 06:30:00,,0830.5,4.98,0.00,30.3,29.2,00.0,39.0,32.1,18.5,0000.0,0005.25,0011.74,0004.32
2022-09-01 06:31:00,,0830.5,5.01,0.00,30.3,29.2,00.0,39.0,32.1,18.4,0000.0,0005.25,0011.77,0004.33
2022-09-01 06:32:00,,0830.4,5.00,0.00,30.3,28.4,00.0,39.0,32.1,18.3,0000.0,0005.29,0011.76,0004.34
2022-09-01 06:33:00,,0830.4,5.00,0.00,30.3,27.3,00.0,38.9,32.0,18.3,0000.0,0005.33,0011.69,0004.35
2022-09-01 06:34:00,,0830.4,5.01,0.00,30.2,27.0,00.0,38.9,31.9,18.4,0000.0,0005.34,0011.41,0004.39
2022-09-01 06:35:00,,0830.4,5.00,0.00,30.1,27.2,00.0,38.9,31.8,18.5,0000.0,0005.31,0010.85,0004.40
2022-09-01 06:36:00,,0830.4,5.01,0.00,30.1,27.6,00.0,38.8,31.7,18.5,0000.0,0005.30,0010.85,0004.42
2022-09-01 06:37:00,,0830.4,5.00,0.00,30.0,27.8,00.0,38.8,31.7,18.5,0000.0,0005.30,0011.12,0004.44
2022-09-01 06:38:00,,0830.4,5.00,0.00,30.0,28.1,00.0,38.8,31.8,18.5,0000.0,0005.34,0011.70,0004.46
2022-09-01 06:39:00,,0830.4,5.00,0.00,30.0,28.3,00.0,38.8,31.7,18.6,0000.0,0005.41,0011.65,0004.48
2022-09-01 06:40:00,,0830.4,5.00,0.00,30.0,28.4,00.0,38.8,31.8,18.6,0000.0,0005.41,0011.55,0004.50
2022-09-01 06:41:00,,0830.4,5.00,0.00,30.0,28.5,00.0,38.8,31.8,18.5,0000.0,0005.41,0011.52,0004.51
2022-09-01 06:42:00,,0830.4,5.00,0.00,30.0,28.6,00.0,38.8,31.8,18.5,0000.0,0005.40,0011.68,0004.51
2022-09-01 06:43:00,,0830.4,5.00,0.00,30.0,28.7,00.0,38.8,31.9,18.5,0000.0,0005.36,0011.36,0004.52
2022-09-01 06:44:00,,0830.4,4.98,0.00,30.1,28.8,00.0,38.8,31.9,18.4,0000.0,0005.34,0011.36,0004.52
2022-09-01 06:45:00,,0830.4,5.01,0.00,30.1,28.9,00.0,38.8,31.9,18.4,0000.0,0005.32,0011.60,0004.51
2022-09-01 06:46:00,,0830.4,5.01,0.00,30.1,28.9,00.0,38.9,32.0,18.4,0000.0,0005.29,0011.68,0004.50
2022-09-01 06:47:00,,0830.4,4.98,0.00,30.1,29.0,00.0,38.9,32.0,18.6,0000.0,0005.30,0011.74,0004.50
2022-09-01 06:48:00,,0830.4,5.00,0.00,30.1,29.0,00.0,38.9,32.0,19.0,0000.0,0005.30,0011.68,0004.49
2022-09-01 06:49:00,,0830.4,5.00,0.00,30.2,29.0,00.0,38.9,32.0,19.0,0000.0,0005.30,0011.56,0004.50
2022-09-01 06:50:00,,0830.4,4.99,0.00,30.2,29.1,00.0,38.9,32.0,18.9,0000.0,0005.30,0011.89,0004.50
2022-09-01 06:51:00,,0830.4,5.01,0.00,30.2,29.1,00.0,38.9,32.1,18.7,0000.0,0005.31,0013.01,0004.51
2022-09-01 06:52:00,,0830.5,5.01,0.00,30.2,29.2,00.0,39.0,32.1,18.8,0000.0,0005.34,0013.13,0004.52
2022-09-01 06:53:00,,0830.4,5.01,0.00,30.3,29.2,00.0,39.0,32.1,18.6,0000.0,0005.32,0013.23,0004.53
2022-09-01 06:54:00,,0830.5,4.99,0.00,30.3,29.2,00.0,39.0,32.1,18.4,0000.0,0005.34,0013.52,0004.54
2022-09-01 06:55:00,,0830.4,5.01,0.00,30.3,29.2,00.0,39.0,32.1,18.2,0000.0,0005.36,0013.48,0004.56
2022-09-01 06:56:00,,0830.5,5.00,0.00,30.3,29.3,00.0,39.0,32.2,18.1,0000.0,0005.36,0013.31,0004.57
2022-09-01 06:57:00,,0830.5,5.01,0.00,30.3,29.3,00.0,39.0,32.2,18.0,0000.0,0005.39,0014.45,0004.57
2022-09-01 06:58:00,,0830.5,5.00,0.00,30.4,29.2,00.0,39.1,32.2,17.9,0000.0,0005.40,0014.72,0004.57
2022-09-01 06:59:00,,0830.5,4.98,0.00,30.4,27.9,00.0,39.1,32.1,17.9,0000.0,0005.39,0014.65,0004.58
